| time (UTC) | temp F | wind direction | speed knots | gust knots | rain 1hr in | rain 24hr in | rain mn in | humidity % | barometer mb |
| 20260502232837 | 59 | 69 | 0.9 | 1.7 | 0.00 | 0.00 | 0.00 | 50 | 1013.2 |
| 20260502232336 | 59 | 80 | 0.9 | 1.7 | 0.00 | 0.00 | 0.00 | 50 | 1013.2 |
| 20260502231835 | 60 | 37 | 0.9 | 4.3 | 0.00 | 0.00 | 0.00 | 51 | 1013.2 |
| 20260502231334 | 60 | 39 | 0.9 | 4.3 | 0.00 | 0.00 | 0.00 | 45 | 1013.2 |
| 20260502230833 | 60 | 24 | 1.7 | 5.2 | 0.00 | 0.00 | 0.00 | 46 | 1013.2 |
| 20260502230331 | 60 | 38 | 1.7 | 5.2 | 0.00 | 0.00 | 0.00 | 45 | 1013.2 |
| 20260502225830 | 60 | 66 | 0.9 | 4.3 | 0.00 | 0.00 | 0.00 | 46 | 1013.2 |
| 20260502225258 | 61 | 61 | 1.7 | 7.8 | 0.00 | 0.00 | 0.00 | 45 | 1013.2 |
| 20260502224708 | 61 | 44 | 1.7 | 8.7 | 0.00 | 0.00 | 0.00 | 46 | 1013.2 |
| 20260502224135 | 61 | 32 | 2.6 | 8.7 | 0.00 | 0.00 | 0.00 | 44 | 1013.2 |
| 20260502223634 | 61 | 64 | 1.7 | 5.2 | 0.00 | 0.00 | 0.00 | 46 | 1013.5 |
| 20260502223133 | 61 | 46 | 2.6 | 5.2 | 0.00 | 0.00 | 0.00 | 44 | 1013.5 |
| 20260502222631 | 62 | 336 | 0.9 | 7.8 | 0.00 | 0.00 | 0.00 | 44 | 1013.2 |
| 20260502222131 | 62 | 71 | 1.7 | 7.8 | 0.00 | 0.00 | 0.00 | 45 | 1013.2 |
| 20260502221629 | 62 | 51 | 1.7 | 8.7 | 0.00 | 0.00 | 0.00 | 43 | 1013.2 |
| 20260502221128 | 63 | 13 | 1.7 | 8.7 | 0.00 | 0.00 | 0.00 | 44 | 1013.2 |
| 20260502220628 | 63 | 347 | 1.7 | 7.8 | 0.00 | 0.00 | 0.00 | 44 | 1013.2 |
| 20260502220024 | 62 | 55 | 1.7 | 5.2 | 0.00 | 0.00 | 0.00 | 45 | 1013.2 |
| 20260502215451 | 63 | 16 | 0.9 | 6.1 | 0.00 | 0.00 | 0.00 | 44 | 1012.9 |
| 20260502214950 | 63 | 94 | 0.9 | 6.1 | 0.00 | 0.00 | 0.00 | 42 | 1012.9 |
| 20260502214449 | 64 | 94 | 0.9 | 7.0 | 0.00 | 0.00 | 0.00 | 41 | 1012.9 |
| 20260502213948 | 64 | 138 | 1.7 | 7.0 | 0.00 | 0.00 | 0.00 | 41 | 1012.9 |
| 20260502213447 | 65 | 276 | 0.9 | 4.3 | 0.00 | 0.00 | 0.00 | 42 | 1012.9 |
| 20260502212843 | 64 | 245 | 0.9 | 5.2 | 0.00 | 0.00 | 0.00 | 44 | 1012.9 |
| 20260502212342 | 64 | 257 | 0.9 | 5.2 | 0.00 | 0.00 | 0.00 | 40 | 1012.9 |
| 20260502211840 | 64 | 314 | 0.9 | 5.2 | 0.00 | 0.00 | 0.00 | 38 | 1012.9 |
| 20260502211308 | 63 | 39 | 1.7 | 5.2 | 0.00 | 0.00 | 0.00 | 40 | 1012.9 |
| 20260502210807 | 64 | 50 | 1.7 | 5.2 | 0.00 | 0.00 | 0.00 | 40 | 1012.9 |
| 20260502210203 | 64 | 104 | 1.7 | 7.0 | 0.00 | 0.00 | 0.00 | 41 | 1012.9 |
| 20260502205702 | 64 | 38 | 1.7 | 7.0 | 0.00 | 0.00 | 0.00 | 42 | 1012.9 |
| 20260502205130 | 64 | 50 | 2.6 | 7.8 | 0.00 | 0.00 | 0.00 | 41 | 1012.9 |
| 20260502204630 | 64 | 50 | 3.5 | 7.8 | 0.00 | 0.00 | 0.00 | 40 | 1012.9 |
| 20260502204129 | 64 | 39 | 2.6 | 7.0 | 0.00 | 0.00 | 0.00 | 40 | 1012.9 |
| 20260502203628 | 65 | 69 | 1.7 | 6.1 | 0.00 | 0.00 | 0.00 | 37 | 1012.9 |
| 20260502203055 | 66 | 33 | 3.5 | 6.1 | 0.00 | 0.00 | 0.00 | 36 | 1012.9 |
| 20260502202554 | 65 | 239 | 0.9 | 6.1 | 0.00 | 0.00 | 0.00 | 40 | 1012.9 |
| 20260502202021 | 66 | 45 | 3.5 | 6.1 | 0.00 | 0.00 | 0.00 | 38 | 1012.9 |
| 20260502201517 | 66 | 41 | 1.7 | 6.1 | 0.00 | 0.00 | 0.00 | 39 | 1012.9 |
| 20260502201016 | 65 | 265 | 0.9 | 7.0 | 0.00 | 0.00 | 0.00 | 40 | 1012.9 |
| 20260502200515 | 65 | 69 | 3.5 | 7.0 | 0.00 | 0.00 | 0.00 | 39 | 1012.9 |
| 20260502200014 | 64 | 237 | 0.9 | 4.3 | 0.00 | 0.00 | 0.00 | 39 | 1012.9 |
| 20260502195513 | 64 | 70 | 0.9 | 6.1 | 0.00 | 0.00 | 0.00 | 38 | 1013.2 |
| 20260502195011 | 65 | 27 | 1.7 | 6.1 | 0.00 | 0.00 | 0.00 | 37 | 1013.2 |
| 20260502194511 | 65 | 34 | 1.7 | 6.1 | 0.00 | 0.00 | 0.00 | 38 | 1013.2 |
| 20260502193938 | 65 | 107 | 0.9 | 6.1 | 0.00 | 0.00 | 0.00 | 36 | 1013.2 |
| 20260502193435 | 64 | 63 | 1.7 | 7.0 | 0.00 | 0.00 | 0.00 | 37 | 1013.2 |
| 20260502192934 | 64 | 54 | 2.6 | 7.0 | 0.00 | 0.00 | 0.00 | 39 | 1013.2 |
| 20260502192433 | 64 | 58 | 1.7 | 4.3 | 0.00 | 0.00 | 0.00 | 41 | 1013.2 |
| 20260502191901 | 64 | 285 | 0.9 | 6.1 | 0.00 | 0.00 | 0.00 | 41 | 1013.2 |
| 20260502191400 | 64 | 37 | 0.9 | 8.7 | 0.00 | 0.00 | 0.00 | 40 | 1013.2 |
| 20260502190859 | 65 | 49 | 1.7 | 8.7 | 0.00 | 0.00 | 0.00 | 35 | 1013.2 |
| 20260502190358 | 65 | 41 | 1.7 | 9.6 | 0.00 | 0.00 | 0.00 | 35 | 1013.2 |
| 20260502185857 | 65 | 56 | 2.6 | 9.6 | 0.00 | 0.00 | 0.00 | 36 | 1013.2 |
| 20260502185356 | 65 | 52 | 2.6 | 8.7 | 0.00 | 0.00 | 0.00 | 36 | 1013.2 |
| 20260502184855 | 63 | 101 | 0.9 | 11.3 | 0.00 | 0.00 | 0.00 | 38 | 1013.2 |
| 20260502184354 | 63 | 40 | 1.7 | 11.3 | 0.00 | 0.00 | 0.00 | 38 | 1013.2 |
| 20260502183822 | 63 | 118 | 1.7 | 12.2 | 0.00 | 0.00 | 0.00 | 34 | 1013.5 |
| 20260502183321 | 63 | 33 | 3.5 | 12.2 | 0.00 | 0.00 | 0.00 | 38 | 1013.5 |
| 20260502182819 | 63 | 51 | 0.9 | 8.7 | 0.00 | 0.00 | 0.00 | 38 | 1013.5 |
| 20260502182318 | 63 | 55 | 2.6 | 8.7 | 0.00 | 0.00 | 0.00 | 39 | 1013.5 |
| 20260502181817 | 64 | 45 | 4.3 | 8.7 | 0.00 | 0.00 | 0.00 | 35 | 1013.5 |
| 20260502181316 | 64 | 65 | 2.6 | 7.0 | 0.00 | 0.00 | 0.00 | 36 | 1013.9 |
| 20260502180743 | 64 | 264 | 1.7 | 7.8 | 0.00 | 0.00 | 0.00 | 40 | 1013.5 |
| 20260502180242 | 64 | 68 | 2.6 | 8.7 | 0.00 | 0.00 | 0.00 | 39 | 1013.9 |
| 20260502170125 | 62 | 48 | 4.3 | 13.0 | 0.00 | 0.00 | 0.00 | 36 | 1014.2 |
| 20260502164121 | 62 | 51 | 2.6 | 8.7 | 0.00 | 0.00 | 0.00 | 41 | 1014.2 |
| 20260502163619 | 61 | 46 | 2.6 | 8.7 | 0.00 | 0.00 | 0.00 | 44 | 1014.6 |
| 20260502163118 | 61 | 45 | 3.5 | 8.7 | 0.00 | 0.00 | 0.00 | 41 | 1014.6 |
| 20260502162617 | 61 | 42 | 3.5 | 7.0 | 0.00 | 0.00 | 0.00 | 44 | 1014.6 |
| 20260502162044 | 61 | 40 | 2.6 | 7.8 | 0.00 | 0.00 | 0.00 | 42 | 1014.6 |
| 20260502161543 | 61 | 50 | 2.6 | 8.7 | 0.00 | 0.00 | 0.00 | 43 | 1014.6 |
| 20260502161042 | 61 | 50 | 2.6 | 8.7 | 0.00 | 0.00 | 0.00 | 45 | 1014.6 |
| 20260502160541 | 61 | 316 | 0.9 | 6.1 | 0.00 | 0.00 | 0.00 | 48 | 1014.6 |
| 20260502151722 | 59 | 48 | 2.6 | 8.7 | 0.00 | 0.00 | 0.00 | 47 | 1014.6 |
| 20260502151220 | 59 | 34 | 2.6 | 8.7 | 0.00 | 0.00 | 0.00 | 48 | 1014.6 |
| 20260502150719 | 59 | 38 | 4.3 | 8.7 | 0.00 | 0.00 | 0.00 | 48 | 1014.6 |
| 20260502150218 | 58 | 53 | 1.7 | 7.8 | 0.00 | 0.00 | 0.00 | 48 | 1014.6 |
| 20260502130327 | 53 | 28 | 3.5 | 7.8 | 0.00 | 0.00 | 0.00 | 63 | 1014.6 |
| 20260502123321 | 51 | 16 | 0.9 | 1.7 | 0.00 | 0.00 | 0.00 | 75 | 1014.2 |
| 20260502122820 | 50 | 73 | 0.9 | 1.7 | 0.00 | 0.00 | 0.00 | 74 | 1014.2 |
| 20260502122319 | 50 | 32 | 0.9 | 1.7 | 0.00 | 0.00 | 0.00 | 74 | 1014.2 |
| 20260502121815 | 50 | 75 | 0.0 | 0.9 | 0.00 | 0.00 | 0.00 | 75 | 1014.2 |
| 20260502121313 | 49 | 75 | 0.0 | 1.7 | 0.00 | 0.00 | 0.00 | 76 | 1014.2 |
| 20260502120811 | 49 | 67 | 0.0 | 1.7 | 0.00 | 0.00 | 0.00 | 77 | 1014.2 |
| 20260502120239 | 49 | 267 | 0.9 | 0.9 | 0.00 | 0.00 | 0.00 | 80 | 1014.2 |
| 20260502115738 | 48 | 193 | 0.0 | 0.0 | 0.00 | 0.00 | 0.00 | 81 | 1013.9 |
| 20260502115236 | 48 | 194 | 0.0 | 0.0 | 0.00 | 0.00 | 0.00 | 80 | 1013.9 |
| 20260502114734 | 48 | 194 | 0.0 | 0.0 | 0.00 | 0.00 | 0.00 | 82 | 1013.9 |
| 20260502114234 | 48 | 194 | 0.0 | 0.9 | 0.00 | 0.00 | 0.00 | 83 | 1013.9 |
| 20260502113722 | 48 | 194 | 0.0 | 0.9 | 0.00 | 0.00 | 0.00 | 83 | 1013.5 |
| 20260502113221 | 48 | 194 | 0.0 | 0.9 | 0.00 | 0.00 | 0.00 | 83 | 1013.9 |
| 20260502112720 | 47 | 194 | 0.0 | 0.9 | 0.00 | 0.00 | 0.00 | 82 | 1013.5 |
| 20260502112218 | 47 | 194 | 0.9 | 0.9 | 0.00 | 0.00 | 0.00 | 82 | 1013.5 |
| 20260502111718 | 47 | 104 | 0.0 | 0.0 | 0.00 | 0.00 | 0.00 | 81 | 1013.5 |
| 20260502111215 | 47 | 105 | 0.0 | 0.0 | 0.00 | 0.00 | 0.00 | 80 | 1013.5 |
| 20260502110642 | 47 | 105 | 0.0 | 0.0 | 0.00 | 0.00 | 0.00 | 81 | 1013.2 |
| 20260502110140 | 47 | 105 | 0.0 | 0.0 | 0.00 | 0.00 | 0.00 | 80 | 1013.2 |
| 20260502105639 | 48 | 105 | 0.0 | 0.0 | 0.00 | 0.00 | 0.00 | 80 | 1013.2 |
| 20260502105137 | 48 | 105 | 0.0 | 0.0 | 0.00 | 0.00 | 0.00 | 79 | 1013.2 |
| 20260502104605 | 48 | 104 | 0.0 | 0.0 | 0.00 | 0.00 | 0.00 | 78 | 1013.2 |
| 20260502104104 | 48 | 104 | 0.0 | 0.0 | 0.00 | 0.00 | 0.00 | 78 | 1013.2 |
| 20260502103603 | 48 | 105 | 0.0 | 0.0 | 0.00 | 0.00 | 0.00 | 78 | 1013.2 |
| 20260502103101 | 48 | 105 | 0.0 | 0.0 | 0.00 | 0.00 | 0.00 | 77 | 1013.2 |
| 20260502102600 | 48 | 105 | 0.0 | 0.0 | 0.00 | 0.00 | 0.00 | 77 | 1013.5 |
| 20260502102059 | 48 | 105 | 0.0 | 0.0 | 0.00 | 0.00 | 0.00 | 76 | 1013.2 |
| 20260502101558 | 48 | 105 | 0.0 | 0.0 | 0.00 | 0.00 | 0.00 | 76 | 1013.2 |
| 20260502101056 | 49 | 105 | 0.0 | 0.0 | 0.00 | 0.00 | 0.00 | 75 | 1013.2 |
| 20260502100555 | 49 | 104 | 0.0 | 0.0 | 0.00 | 0.00 | 0.00 | 75 | 1013.2 |
| 20260502091438 | 50 | 115 | 0.0 | 0.9 | 0.00 | 0.00 | 0.00 | 72 | 1013.2 |
| 20260502090936 | 50 | 115 | 0.9 | 0.9 | 0.00 | 0.00 | 0.00 | 72 | 1013.2 |
| 20260502090403 | 50 | 115 | 0.9 | 0.9 | 0.00 | 0.00 | 0.00 | 72 | 1013.2 |
| 20260502071231 | 52 | 30 | 1.7 | 3.5 | 0.00 | 0.00 | 0.00 | 62 | 1014.2 |
| 20260502070729 | 52 | 55 | 0.9 | 2.6 | 0.00 | 0.00 | 0.00 | 62 | 1014.2 |
| 20260502070228 | 52 | 8 | 1.7 | 2.6 | 0.00 | 0.00 | 0.00 | 62 | 1014.2 |
| 20260502065727 | 53 | 48 | 0.9 | 2.6 | 0.00 | 0.00 | 0.00 | 61 | 1013.9 |
| 20260502065225 | 53 | 58 | 0.9 | 2.6 | 0.00 | 0.00 | 0.00 | 62 | 1013.9 |
| 20260502064724 | 53 | 12 | 0.9 | 2.6 | 0.00 | 0.00 | 0.00 | 60 | 1013.9 |
| 20260502064223 | 53 | 7 | 0.9 | 2.6 | 0.00 | 0.00 | 0.00 | 59 | 1013.9 |
| 20260502063721 | 53 | 61 | 0.9 | 3.5 | 0.00 | 0.00 | 0.00 | 59 | 1013.9 |
| 20260502063220 | 54 | 108 | 0.9 | 3.5 | 0.00 | 0.00 | 0.00 | 60 | 1013.9 |
| 20260502062717 | 54 | 66 | 0.0 | 4.3 | 0.00 | 0.00 | 0.00 | 60 | 1013.9 |
| 20260502062216 | 54 | 43 | 1.7 | 4.3 | 0.00 | 0.00 | 0.00 | 58 | 1013.9 |
| 20260502061715 | 54 | 66 | 0.9 | 5.2 | 0.00 | 0.00 | 0.00 | 58 | 1013.9 |
| 20260502061214 | 54 | 25 | 0.9 | 5.2 | 0.00 | 0.00 | 0.00 | 56 | 1013.9 |
| 20260502060713 | 54 | 47 | 1.7 | 6.1 | 0.00 | 0.00 | 0.00 | 56 | 1013.9 |
| 20260502060212 | 54 | 45 | 1.7 | 6.1 | 0.00 | 0.00 | 0.00 | 56 | 1013.9 |
| 20260502055638 | 54 | 41 | 3.5 | 6.1 | 0.00 | 0.00 | 0.00 | 55 | 1013.9 |
| 20260502055137 | 54 | 42 | 2.6 | 5.2 | 0.00 | 0.00 | 0.00 | 55 | 1013.9 |
| 20260502054636 | 55 | 64 | 1.7 | 5.2 | 0.00 | 0.00 | 0.00 | 55 | 1013.9 |
| 20260502054135 | 55 | 326 | 0.9 | 4.3 | 0.00 | 0.00 | 0.00 | 55 | 1013.9 |
| 20260502053632 | 55 | 43 | 1.7 | 6.1 | 0.00 | 0.00 | 0.00 | 54 | 1013.5 |
| 20260502053131 | 55 | 39 | 1.7 | 7.0 | 0.00 | 0.00 | 0.00 | 54 | 1013.5 |
| 20260502052630 | 55 | 0 | 0.9 | 7.0 | 0.00 | 0.00 | 0.00 | 54 | 1013.5 |
| 20260502052057 | 55 | 259 | 1.7 | 7.8 | 0.00 | 0.00 | 0.00 | 53 | 1013.5 |
| 20260502051555 | 55 | 44 | 2.6 | 7.8 | 0.00 | 0.00 | 0.00 | 53 | 1013.5 |
| 20260502051023 | 55 | 49 | 1.7 | 3.5 | 0.00 | 0.00 | 0.00 | 53 | 1013.5 |
| 20260502050521 | 56 | 54 | 1.7 | 3.5 | 0.00 | 0.00 | 0.00 | 54 | 1013.5 |
| 20260502050021 | 56 | 21 | 0.9 | 5.2 | 0.00 | 0.00 | 0.00 | 52 | 1013.5 |
| 20260502045520 | 56 | 44 | 1.7 | 5.2 | 0.00 | 0.00 | 0.00 | 51 | 1013.5 |
| 20260502045019 | 56 | 54 | 0.9 | 7.8 | 0.00 | 0.00 | 0.00 | 51 | 1013.5 |
| 20260502044518 | 56 | 43 | 1.7 | 7.8 | 0.00 | 0.00 | 0.00 | 51 | 1013.5 |
| 20260502044017 | 56 | 35 | 1.7 | 8.7 | 0.00 | 0.00 | 0.00 | 50 | 1013.5 |
| 20260502043412 | 57 | 59 | 4.3 | 8.7 | 0.00 | 0.00 | 0.00 | 49 | 1013.5 |
| 20260502042911 | 57 | 51 | 1.7 | 9.6 | 0.00 | 0.00 | 0.00 | 49 | 1013.5 |
| 20260502042410 | 57 | 41 | 4.3 | 9.6 | 0.00 | 0.00 | 0.00 | 50 | 1013.5 |
| 20260502041909 | 57 | 40 | 2.6 | 7.0 | 0.00 | 0.00 | 0.00 | 51 | 1013.5 |
| 20260502041408 | 57 | 74 | 0.9 | 7.0 | 0.00 | 0.00 | 0.00 | 51 | 1013.5 |
| 20260502040907 | 57 | 5 | 1.7 | 7.0 | 0.00 | 0.00 | 0.00 | 50 | 1013.5 |
| 20260502040406 | 57 | 92 | 0.9 | 7.8 | 0.00 | 0.00 | 0.00 | 51 | 1013.9 |
| 20260502035905 | 57 | 52 | 3.5 | 7.8 | 0.00 | 0.00 | 0.00 | 48 | 1013.9 |
| 20260502035333 | 57 | 39 | 1.7 | 4.3 | 0.00 | 0.00 | 0.00 | 52 | 1013.5 |
| 20260502034832 | 58 | 43 | 2.6 | 7.0 | 0.00 | 0.00 | 0.00 | 49 | 1013.5 |
| 20260502034331 | 58 | 65 | 1.7 | 8.7 | 0.00 | 0.00 | 0.00 | 50 | 1013.5 |
| 20260502033830 | 58 | 35 | 1.7 | 8.7 | 0.00 | 0.00 | 0.00 | 51 | 1013.5 |
| 20260502033257 | 58 | 50 | 2.6 | 9.6 | 0.00 | 0.00 | 0.00 | 49 | 1013.5 |
| 20260502032723 | 57 | 57 | 3.5 | 9.6 | 0.00 | 0.00 | 0.00 | 53 | 1013.5 |
| 20260502032222 | 58 | 57 | 0.9 | 7.8 | 0.00 | 0.00 | 0.00 | 53 | 1013.5 |
| 20260502031721 | 58 | 71 | 0.0 | 7.8 | 0.00 | 0.00 | 0.00 | 54 | 1013.5 |
| 20260502031219 | 58 | 86 | 1.7 | 8.7 | 0.00 | 0.00 | 0.00 | 52 | 1013.5 |
| 20260502030647 | 58 | 44 | 2.6 | 8.7 | 0.00 | 0.00 | 0.00 | 55 | 1013.5 |
| 20260502030146 | 58 | 26 | 2.6 | 6.1 | 0.00 | 0.00 | 0.00 | 58 | 1013.9 |
| 20260502025645 | 58 | 60 | 0.9 | 2.6 | 0.00 | 0.00 | 0.00 | 56 | 1013.9 |
| 20260502025143 | 58 | 51 | 0.9 | 2.6 | 0.00 | 0.00 | 0.00 | 59 | 1013.5 |
| 20260502024642 | 58 | 35 | 1.7 | 2.6 | 0.00 | 0.00 | 0.00 | 59 | 1013.5 |
| 20260502024141 | 58 | 260 | 0.9 | 4.3 | 0.00 | 0.00 | 0.00 | 61 | 1013.5 |
| 20260502023639 | 59 | 145 | 0.9 | 4.3 | 0.00 | 0.00 | 0.00 | 57 | 1013.5 |
| 20260502023138 | 59 | 118 | 0.0 | 7.8 | 0.00 | 0.00 | 0.00 | 59 | 1013.5 |
| 20260502022605 | 59 | 206 | 0.9 | 7.8 | 0.00 | 0.00 | 0.00 | 60 | 1013.5 |
| 20260502022104 | 59 | 51 | 0.9 | 8.7 | 0.00 | 0.00 | 0.00 | 60 | 1013.5 |
| 20260502021603 | 59 | 75 | 1.7 | 8.7 | 0.00 | 0.00 | 0.00 | 60 | 1013.5 |
| 20260502021102 | 59 | 132 | 0.0 | 3.5 | 0.00 | 0.00 | 0.00 | 63 | 1013.5 |
| 20260502020601 | 60 | 269 | 0.9 | 3.5 | 0.00 | 0.00 | 0.00 | 63 | 1013.5 |
| 20260502020100 | 60 | 88 | 0.9 | 3.5 | 0.00 | 0.00 | 0.00 | 62 | 1013.5 |
| 20260502015527 | 60 | 66 | 0.9 | 4.3 | 0.00 | 0.00 | 0.00 | 61 | 1013.2 |
| 20260502015026 | 61 | 65 | 0.9 | 6.1 | 0.00 | 0.00 | 0.00 | 60 | 1013.2 |
| 20260502014526 | 61 | 358 | 0.9 | 6.1 | 0.00 | 0.00 | 0.00 | 61 | 1013.2 |
| 20260502014024 | 61 | 33 | 3.5 | 6.1 | 0.00 | 0.00 | 0.00 | 60 | 1012.9 |
| 20260502013452 | 61 | 52 | 2.6 | 6.1 | 0.00 | 0.00 | 0.00 | 60 | 1012.9 |
| 20260502012951 | 61 | 40 | 2.6 | 6.1 | 0.00 | 0.00 | 0.00 | 60 | 1012.9 |
| 20260502012449 | 61 | 6 | 0.9 | 5.2 | 0.00 | 0.00 | 0.00 | 62 | 1012.5 |
| 20260502011917 | 61 | 53 | 1.7 | 5.2 | 0.00 | 0.00 | 0.00 | 62 | 1012.5 |
| 20260502011416 | 60 | 66 | 1.7 | 3.5 | 0.00 | 0.00 | 0.00 | 63 | 1012.5 |
| 20260502010915 | 61 | 73 | 0.9 | 0.9 | 0.00 | 0.00 | 0.00 | 63 | 1012.2 |
| 20260502010414 | 61 | 125 | 0.0 | 0.9 | 0.00 | 0.00 | 0.00 | 64 | 1012.2 |
| 20260502005913 | 61 | 126 | 0.0 | 0.9 | 0.00 | 0.00 | 0.00 | 61 | 1012.2 |
| 20260502005412 | 61 | 118 | 0.9 | 3.5 | 0.00 | 0.00 | 0.00 | 61 | 1012.2 |
| 20260502004910 | 61 | 95 | 0.9 | 3.5 | 0.00 | 0.00 | 0.00 | 61 | 1011.9 |
| 20260502004409 | 61 | 91 | 0.0 | 3.5 | 0.00 | 0.00 | 0.00 | 61 | 1011.9 |
| 20260502003907 | 61 | 324 | 1.7 | 3.5 | 0.00 | 0.00 | 0.00 | 61 | 1011.9 |
| 20260502003406 | 61 | 122 | 0.9 | 0.9 | 0.00 | 0.00 | 0.00 | 60 | 1011.5 |
| 20260502002833 | 61 | 122 | 0.0 | 0.9 | 0.00 | 0.00 | 0.00 | 59 | 1011.2 |
| 20260502002332 | 62 | 89 | 0.0 | 0.0 | 0.00 | 0.00 | 0.00 | 59 | 1011.2 |
| 20260502001830 | 62 | 89 | 0.0 | 0.9 | 0.00 | 0.00 | 0.00 | 59 | 1011.2 |
| 20260502001330 | 62 | 89 | 0.0 | 1.7 | 0.00 | 0.00 | 0.00 | 58 | 1011.2 |
| 20260502000826 | 63 | 89 | 0.0 | 1.7 | 0.00 | 0.00 | 0.00 | 59 | 1011.2 |
| 20260502000325 | 63 | 89 | 0.9 | 1.7 | 0.00 | 0.00 | 0.00 | 58 | 1011.2 |
| 20260501235824 | 63 | 89 | 0.0 | 1.7 | 0.00 | 0.00 | 0.00 | 57 | 1011.2 |
| 20260501235323 | 63 | 123 | 0.9 | 0.9 | 0.00 | 0.00 | 0.00 | 57 | 1011.2 |
| 20260501234822 | 64 | 80 | 0.0 | 0.9 | 0.00 | 0.00 | 0.00 | 55 | 1011.2 |
| 20260501234320 | 64 | 81 | 0.0 | 0.9 | 0.00 | 0.00 | 0.00 | 57 | 1011.2 |
| 20260501233818 | 64 | 81 | 0.0 | 0.9 | 0.00 | 0.00 | 0.00 | 54 | 1011.2 |
| 20260501233245 | 64 | 94 | 0.0 | 0.9 | 0.00 | 0.00 | 0.00 | 55 | 1011.2 |